DW5560 Heraklion GR current weather conditions

sailwx.info

Wind from 358 at 2 knots gusting 6

Air temperature 13.3° C
Dewpoint 9.0° C

Last reported at 2019-Dec-06 20:04 UTC.
Time now 2019-Dec-06 20:58 UTC

Location: N 35°15' E 025°04'.
View on Google Maps.

See reports from other nearby stations

  
Tides and Currents Weather Stations Pressure Air Temp Water Temp Dewpoint Dewpoint Depression Visibility Wind Speed Wind Dir Waves Ship Positions
date/time (UTC)wind fromknots sea level pressurealtimeterstation pressurevisibilityair tempwater tempwave heightnotes
2019-Dec-06 20:04 358 2 gusting 6 13.3
2019-Dec-06 19:59 327 3 gusting 7 13.3
2019-Dec-06 19:54 321 3 gusting 9 13.3
2019-Dec-06 19:49 065 4 gusting 9 13.3
2019-Dec-06 19:44 356 5 gusting 9 13.3
2019-Dec-06 19:39 346 4 gusting 9 13.3
2019-Dec-06 19:34 037 3 gusting 11 13.3
2019-Dec-06 19:29 308 6 gusting 11 13.3
2019-Dec-06 19:24 290 6 gusting 10 13.3
2019-Dec-06 19:19 342 6 gusting 9 13.3
2019-Dec-06 19:14 333 5 gusting 10 13.3
2019-Dec-06 19:09 033 6 gusting 9 13.3
2019-Dec-06 19:04 015 6 gusting 9 13.3
2019-Dec-06 18:59 012 5 gusting 11 13.3
2019-Dec-06 18:54 346 6 gusting 11 13.3
2019-Dec-06 18:49 037 6 gusting 11 13.3
2019-Dec-06 18:44 351 6 gusting 12 13.3
2019-Dec-06 18:39 315 7 gusting 12 13.3
2019-Dec-06 18:34 341 8 gusting 14 13.3
2019-Dec-06 18:29 328 7 gusting 13 13.3
2019-Dec-06 18:24 330 7 gusting 13 13.3
2019-Dec-06 18:19 328 6 gusting 13 13.3
2019-Dec-06 18:14 012 7 gusting 13 12.8
2019-Dec-06 18:04 335 6 gusting 12 12.8
2019-Dec-06 17:59 011 6 gusting 12 12.8
2019-Dec-06 17:54 338 8 gusting 12 12.8
2019-Dec-06 17:49 349 5 gusting 9 12.8
2019-Dec-06 17:44 004 5 gusting 8 12.8
2019-Dec-06 17:39 332 5 gusting 9 12.8
2019-Dec-06 17:34 019 5 gusting 11 12.8
2019-Dec-06 17:29 321 5 gusting 13 12.8
2019-Dec-06 17:24 321 7 gusting 13 12.8
2019-Dec-06 17:19 008 6 gusting 13 12.8
2019-Dec-06 17:14 358 7 gusting 13 12.8
2019-Dec-06 17:09 318 8 gusting 13 12.8
2019-Dec-06 17:04 313 7 gusting 12 12.8
2019-Dec-06 16:59 355 7 gusting 13 12.8
2019-Dec-06 16:54 340 7 gusting 13 12.8
2019-Dec-06 16:49 328 5 gusting 11 12.8
2019-Dec-06 16:44 029 6 gusting 10 12.8
2019-Dec-06 16:39 048 6 gusting 10 12.8
2019-Dec-06 16:34 006 6 gusting 10 12.8
2019-Dec-06 16:24 339 5 gusting 11 12.8
2019-Dec-06 16:19 018 5 gusting 12 12.8
2019-Dec-06 16:14 330 4 gusting 9 12.8
2019-Dec-06 16:09 316 4 gusting 13 12.8
2019-Dec-06 16:04 339 7 gusting 13 12.8
2019-Dec-06 15:59 332 6 gusting 12 12.8
2019-Dec-06 15:54 354 6 gusting 11 12.8
2019-Dec-06 15:49 349 6 gusting 11 12.8
2019-Dec-06 15:44 005 6 gusting 10 12.8
2019-Dec-06 15:39 300 6 gusting 12 12.8
2019-Dec-06 15:34 306 6 gusting 12 12.8
2019-Dec-06 15:29 328 6 gusting 11 12.8
2019-Dec-06 15:24 009 6 gusting 13 12.8
2019-Dec-06 15:19 349 6 gusting 13 12.8
2019-Dec-06 15:14 342 6 gusting 12 12.8
2019-Dec-06 15:09 343 6 gusting 13 12.8
2019-Dec-06 15:04 016 6 gusting 13 12.8
2019-Dec-06 14:59 012 7 gusting 12 13.3
2019-Dec-06 14:54 316 8 gusting 13 13.3
2019-Dec-06 14:49 333 7 gusting 12 13.3
2019-Dec-06 14:44 328 6 gusting 13 13.3
2019-Dec-06 14:39 328 7 gusting 13 13.3
2019-Dec-06 14:34 327 6 gusting 12 13.3
2019-Dec-06 14:29 009 7 gusting 12 13.3
2019-Dec-06 14:24 321 6 gusting 15 13.3
2019-Dec-06 14:19 012 8 gusting 15 13.3
2019-Dec-06 14:14 345 8 gusting 15 13.3
2019-Dec-06 14:09 043 10 gusting 15 13.9
2019-Dec-06 14:04 049 6 gusting 15 13.9
2019-Dec-06 13:59 324 9 gusting 15 13.9
2019-Dec-06 13:54 348 8 gusting 14 13.9
2019-Dec-06 13:49 001 8 gusting 13 13.9
2019-Dec-06 13:44 337 8 gusting 15 13.9
2019-Dec-06 13:39 331 7 gusting 15 13.9
2019-Dec-06 13:34 349 9 gusting 14 13.9
2019-Dec-06 13:29 350 8 gusting 13 13.9
2019-Dec-06 13:24 335 8 gusting 13 13.9
2019-Dec-06 13:19 350 9 gusting 13 14.4
2019-Dec-06 13:14 347 9 gusting 15 14.4
2019-Dec-06 13:09 027 7 gusting 16 14.4
2019-Dec-06 13:04 323 9 gusting 16 14.4
2019-Dec-06 12:59 340 9 gusting 15 14.4
2019-Dec-06 12:54 333 10 gusting 16 14.4
2019-Dec-06 12:49 330 10 gusting 16 14.4
2019-Dec-06 12:44 338 8 gusting 15 14.4
2019-Dec-06 12:39 014 9 gusting 14 14.4
2019-Dec-06 12:34 338 10 gusting 14 14.4
2019-Dec-06 12:29 360 7 gusting 13 14.4
2019-Dec-06 12:24 300 8 gusting 13 14.4
2019-Dec-06 12:19 016 7 gusting 13 14.4
2019-Dec-06 12:14 304 7 gusting 15 14.4
2019-Dec-06 12:09 311 9 gusting 15 14.4
2019-Dec-06 12:04 345 9 gusting 14 14.4
2019-Dec-06 11:59 321 9 gusting 13 14.4
2019-Dec-06 11:54 315 9 gusting 17 14.4
2019-Dec-06 11:49 355 6 gusting 17 14.4
2019-Dec-06 11:44 359 9 gusting 15 14.4
2019-Dec-06 11:39 336 10 gusting 15 15.0
2019-Dec-06 11:34 321 9 gusting 15 14.4
2019-Dec-06 11:29 331 7 gusting 16 14.4
2019-Dec-06 11:24 326 9 gusting 16 14.4
2019-Dec-06 11:19 323 8 gusting 17 14.4
2019-Dec-06 11:14 309 9 gusting 17 14.4
2019-Dec-06 11:09 333 9 gusting 17 14.4
2019-Dec-06 11:04 316 9 gusting 17 14.4
2019-Dec-06 10:59 343 8 gusting 13 14.4
2019-Dec-06 10:54 341 9 gusting 17 14.4
2019-Dec-06 10:49 331 7 gusting 17 14.4
2019-Dec-06 10:44 314 8 gusting 14 14.4
2019-Dec-06 10:39 349 8 gusting 15 14.4
2019-Dec-06 10:34 343 8 gusting 15 14.4
2019-Dec-06 10:29 309 7 gusting 13 14.4
2019-Dec-06 10:24 025 6 gusting 12 14.4
2019-Dec-06 10:19 305 6 gusting 12 14.4
2019-Dec-06 10:14 330 6 gusting 14 14.4
2019-Dec-06 10:09 278 7 gusting 14 13.9
2019-Dec-06 10:04 341 6 gusting 12 13.9
2019-Dec-06 09:59 326 7 gusting 12 13.9
2019-Dec-06 09:54 060 5 gusting 10 13.9
2019-Dec-06 09:49 342 6 gusting 12 13.9
2019-Dec-06 09:44 352 7 gusting 13 13.9
2019-Dec-06 09:39 330 6 gusting 13 13.9
2019-Dec-06 09:34 360 6 gusting 12 13.9
2019-Dec-06 09:29 355 7 gusting 13 13.9
2019-Dec-06 09:24 330 7 gusting 12 13.9
2019-Dec-06 09:19 038 7 gusting 12 13.9
2019-Dec-06 09:14 355 6 gusting 12 13.9
2019-Dec-06 09:09 004 6 gusting 12 13.9
2019-Dec-06 09:04 044 6 gusting 10 13.9
2019-Dec-06 08:59 018 5 gusting 10 13.9
2019-Dec-06 08:54 340 6 gusting 10 13.9
2019-Dec-06 08:49 351 5 gusting 13 13.9
2019-Dec-06 08:44 340 6 gusting 10 13.9
2019-Dec-06 08:39 350 5 gusting 10 13.9
2019-Dec-06 08:34 325 6 gusting 13 13.9
2019-Dec-06 08:29 009 6 gusting 13 13.3
2019-Dec-06 08:24 299 6 gusting 13 13.3
2019-Dec-06 08:19 331 6 gusting 13 13.3
2019-Dec-06 08:14 307 6 gusting 13 13.3
2019-Dec-06 08:09 018 7 gusting 13 13.3
2019-Dec-06 08:04 345 8 gusting 13 13.3
2019-Dec-06 07:59 304 6 gusting 12 13.3
2019-Dec-06 07:54 351 7 gusting 12 12.8
2019-Dec-06 07:49 333 7 gusting 13 12.8
2019-Dec-06 07:44 345 7 gusting 12 12.8
2019-Dec-06 07:39 318 6 gusting 12 12.8
2019-Dec-06 07:34 345 6 gusting 12 12.8
2019-Dec-06 07:29 318 6 gusting 12 12.8
2019-Dec-06 07:24 330 8 gusting 12 12.8
2019-Dec-06 07:19 011 6 gusting 11 12.8
2019-Dec-06 07:14 342 6 gusting 11 12.8
2019-Dec-06 07:09 326 6 gusting 13 12.8
2019-Dec-06 07:04 032 6 gusting 13 12.8
2019-Dec-06 06:59 342 7 gusting 12 12.8
2019-Dec-06 06:54 345 6 gusting 12 12.8
2019-Dec-06 06:49 341 5 gusting 10 12.8
2019-Dec-06 06:44 281 6 gusting 10 12.8
2019-Dec-06 06:39 325 6 gusting 9 12.8
2019-Dec-06 06:34 332 6 gusting 9 12.8
2019-Dec-06 06:29 323 5 gusting 8 12.8
2019-Dec-06 06:24 297 4 gusting 8 12.2
2019-Dec-06 06:19 016 5 gusting 11 12.2
2019-Dec-06 06:14 018 5 gusting 9 12.2
2019-Dec-06 06:09 322 5 gusting 10 12.2
2019-Dec-06 06:04 333 6 gusting 10 12.2
2019-Dec-06 05:59 341 5 gusting 10 12.2
2019-Dec-06 05:54 340 5 gusting 13 12.2
2019-Dec-06 05:49 350 6 gusting 13 12.2
2019-Dec-06 05:44 335 4 gusting 6 12.2
2019-Dec-06 05:39 333 3 gusting 9 12.2
2019-Dec-06 05:34 290 5 gusting 9 12.2
2019-Dec-06 05:29 323 3 gusting 8 12.2
2019-Dec-06 05:24 022 2 gusting 11 12.2
2019-Dec-06 05:19 304 5 gusting 12 12.2
2019-Dec-06 05:14 325 6 gusting 12 12.2
2019-Dec-06 05:09 338 5 gusting 10 12.2
2019-Dec-06 05:04 330 4 gusting 10 12.2
2019-Dec-06 04:59 341 5 gusting 10 11.7
2019-Dec-06 04:54 308 5 gusting 11 11.7
2019-Dec-06 04:49 325 6 gusting 11 11.7
2019-Dec-06 04:44 295 5 gusting 12 11.7
2019-Dec-06 04:39 346 6 gusting 12 12.2
2019-Dec-06 04:34 323 6 gusting 12 12.2
2019-Dec-06 04:29 336 6 gusting 12 11.7
2019-Dec-06 04:24 023 6 gusting 13 11.7
2019-Dec-06 04:19 306 6 gusting 14 11.7
2019-Dec-06 04:14 005 7 gusting 14 11.7
2019-Dec-06 04:09 350 6 gusting 13 11.7
2019-Dec-06 04:04 340 6 gusting 12 11.7
2019-Dec-06 03:59 348 6 gusting 12 11.7
2019-Dec-06 03:54 325 4 gusting 12 11.7
2019-Dec-06 03:49 346 5 gusting 11 11.7
2019-Dec-06 03:44 328 5 gusting 11 11.7
2019-Dec-06 03:39 330 5 gusting 13 11.7
2019-Dec-06 03:34 013 6 gusting 13 11.7
2019-Dec-06 03:29 341 5 gusting 10 11.7
2019-Dec-06 03:24 291 5 gusting 11 11.7
2019-Dec-06 03:14 019 4 gusting 7 11.7
2019-Dec-06 03:09 342 5 gusting 13 11.7
2019-Dec-06 03:04 312 6 gusting 13 11.7
2019-Dec-06 02:59 328 6 gusting 12 11.7
2019-Dec-06 02:54 316 7 gusting 13 11.7
2019-Dec-06 02:49 006 7 gusting 13 11.7
2019-Dec-06 02:44 323 6 gusting 13 11.7
2019-Dec-06 02:39 352 6 gusting 14 11.7
2019-Dec-06 02:34 347 9 gusting 15 11.7
2019-Dec-06 02:29 338 9 gusting 15 11.7
2019-Dec-06 02:24 323 10 gusting 17 11.7
2019-Dec-06 02:19 328 10 gusting 17 11.7
2019-Dec-06 02:14 274 9 gusting 14 11.7
2019-Dec-06 02:09 326 8 gusting 15 11.7
2019-Dec-06 02:04 326 9 gusting 16 11.7
2019-Dec-06 01:59 290 9 gusting 15 11.7
2019-Dec-06 01:54 351 9 gusting 14 11.7
2019-Dec-06 01:49 328 9 gusting 16 11.7
2019-Dec-06 01:44 316 9 gusting 15 11.7
2019-Dec-06 01:39 350 9 gusting 15 11.7
2019-Dec-06 01:34 358 9 gusting 15 11.7
2019-Dec-06 01:29 348 8 gusting 14 11.7
2019-Dec-06 01:24 342 9 gusting 16 11.7
2019-Dec-06 01:19 030 9 gusting 14 11.7
2019-Dec-06 01:14 336 8 gusting 14 11.7
2019-Dec-06 01:09 346 8 gusting 14 11.7
2019-Dec-06 01:04 335 9 gusting 14 11.7
2019-Dec-06 00:59 331 6 gusting 9 11.7
2019-Dec-06 00:54 342 6 gusting 11 11.7
2019-Dec-06 00:49 345 6 gusting 11 11.7
2019-Dec-06 00:44 337 5 gusting 11 11.7
2019-Dec-06 00:29 319 6 gusting 13 11.7
2019-Dec-06 00:24 033 6 gusting 14 11.7
2019-Dec-06 00:19 338 6 gusting 14 11.7
2019-Dec-06 00:14 331 7 gusting 14 11.7
2019-Dec-06 00:09 338 6 gusting 11 11.7
2019-Dec-06 00:04 311 7 gusting 11 11.7
2019-Dec-05 23:59 359 6 gusting 12 11.7
2019-Dec-05 23:54 037 6 gusting 12 11.7
2019-Dec-05 23:49 341 6 gusting 10 11.7
2019-Dec-05 23:44 316 6 gusting 12 11.7
2019-Dec-05 23:39 326 6 gusting 12 11.7
2019-Dec-05 23:34 283 7 gusting 12 11.7
2019-Dec-05 23:29 351 7 gusting 12 11.7
2019-Dec-05 23:24 355 6 gusting 11 11.7
2019-Dec-05 23:19 341 6 gusting 11 12.2
2019-Dec-05 23:14 328 6 gusting 13 12.2
2019-Dec-05 23:09 307 7 gusting 13 12.2
2019-Dec-05 23:04 326 6 gusting 10 11.7
2019-Dec-05 22:59 354 6 gusting 10 11.7
2019-Dec-05 22:54 345 5 gusting 12 12.2
2019-Dec-05 22:49 335 7 gusting 13 12.2
2019-Dec-05 22:44 356 7 gusting 12 12.2
2019-Dec-05 22:39 018 6 gusting 12 12.2
2019-Dec-05 22:34 321 7 gusting 13 12.2
2019-Dec-05 22:29 318 6 gusting 13 11.7
2019-Dec-05 22:24 328 7 gusting 13 11.7
2019-Dec-05 22:19 328 7 gusting 12 11.7
2019-Dec-05 22:14 335 6 gusting 12 11.7
2019-Dec-05 22:09 316 6 gusting 13 11.7
2019-Dec-05 22:04 338 6 gusting 11 11.7
2019-Dec-05 21:59 359 6 gusting 10 11.7
2019-Dec-05 21:54 333 6 gusting 11 12.2
2019-Dec-05 21:49 337 6 gusting 12 12.2
2019-Dec-05 21:44 016 6 gusting 15 12.2
2019-Dec-05 21:39 030 6 gusting 11 12.2
2019-Dec-05 21:34 347 6 gusting 11 12.2
2019-Dec-05 21:29 015 6 gusting 12 12.2
2019-Dec-05 21:24 340 8 gusting 12 12.2
2019-Dec-05 21:19 034 6 gusting 12 12.2
2019-Dec-05 21:14 342 6 gusting 12 12.2
2019-Dec-05 21:09 325 6 gusting 12 12.2
2019-Dec-05 21:04 316 6 gusting 12 12.2
2019-Dec-05 20:59 042 7 gusting 13 12.2
2019-Dec-05 20:54 342 7 gusting 13 12.2
2019-Dec-05 20:49 331 6 gusting 12 12.2
2019-Dec-05 20:44 360 9 gusting 12 12.2
2019-Dec-05 20:39 335 6 gusting 10 12.2
2019-Dec-05 20:34 342 6 gusting 11 12.2
2019-Dec-05 20:29 340 6 gusting 11 12.2
2019-Dec-05 20:24 011 6 gusting 13 12.2
2019-Dec-05 20:19 330 7 gusting 13 12.2
2019-Dec-05 20:14 338 6 gusting 12 12.2
2019-Dec-05 20:09 333 6 gusting 12 12.2
2019-Dec-05 20:04 304 5 gusting 13 12.2
2019-Dec-05 19:59 357 6 gusting 13 12.2
2019-Dec-05 19:54 333 6 gusting 13 12.2
2019-Dec-05 19:49 326 6 gusting 11 12.2
2019-Dec-05 19:44 345 5 gusting 11 12.2
2019-Dec-05 19:39 008 6 gusting 12 12.2
2019-Dec-05 19:34 323 6 gusting 12 12.2
2019-Dec-05 19:29 330 5 gusting 12 12.2
2019-Dec-05 19:24 330 6 gusting 12 11.7
2019-Dec-05 19:19 336 6 gusting 12 11.7
2019-Dec-05 19:14 350 6 gusting 10 11.7
2019-Dec-05 19:09 021 6 gusting 11 11.7
2019-Dec-05 19:04 349 7 gusting 11 11.7
2019-Dec-05 18:59 326 6 gusting 10 11.7
2019-Dec-05 18:54 326 6 gusting 10 11.7
2019-Dec-05 18:49 357 6 gusting 10 11.7
2019-Dec-05 18:44 333 6 gusting 10 11.7
2019-Dec-05 18:39 338 6 gusting 10 12.2
2019-Dec-05 18:34 352 6 gusting 12 12.2
2019-Dec-05 18:29 326 6 gusting 11 12.2
2019-Dec-05 18:24 326 6 gusting 11 12.2
2019-Dec-05 18:19 352 6 gusting 10 12.2
2019-Dec-05 18:14 345 6 gusting 13 12.2
2019-Dec-05 18:09 348 6 gusting 13 12.2
2019-Dec-05 18:04 328 6 gusting 13 12.2
2019-Dec-05 17:59 302 6 gusting 13 12.2
2019-Dec-05 17:54 331 6 gusting 13 12.2
2019-Dec-05 17:49 034 6 gusting 13 12.2
2019-Dec-05 17:44 338 6 gusting 12 12.2
2019-Dec-05 17:39 318 8 gusting 16 12.2
2019-Dec-05 17:34 325 8 gusting 16 12.2
2019-Dec-05 17:29 351 7 gusting 14 12.2
2019-Dec-05 17:24 338 6 gusting 12 12.2
2019-Dec-05 17:19 320 6 gusting 13 12.2
2019-Dec-05 17:14 339 6 gusting 13 12.2
2019-Dec-05 17:09 018 8 gusting 13 12.2
2019-Dec-05 17:04 325 7 gusting 13 12.2
2019-Dec-05 16:59 040 6 gusting 12 12.2
2019-Dec-05 16:54 341 6 gusting 13 12.2
2019-Dec-05 16:49 048 7 gusting 13 12.2
2019-Dec-05 16:44 323 6 gusting 13 12.2
2019-Dec-05 16:39 031 9 gusting 13 12.2
2019-Dec-05 16:34 339 6 gusting 13 12.2
2019-Dec-05 16:29 350 9 gusting 13 12.2
2019-Dec-05 16:24 346 6 gusting 12 12.2
2019-Dec-05 16:19 008 7 gusting 14 12.2
2019-Dec-05 16:14 335 6 gusting 13 12.2
2019-Dec-05 16:09 342 6 gusting 13 12.2
2019-Dec-05 16:04 350 6 gusting 12 12.2
2019-Dec-05 15:59 312 6 gusting 12 12.2
2019-Dec-05 15:54 315 6 gusting 10 12.2
2019-Dec-05 15:49 345 7 gusting 13 12.2
2019-Dec-05 15:44 345 7 gusting 13 12.2
2019-Dec-05 15:39 339 6 gusting 12 12.2
2019-Dec-05 15:34 005 6 gusting 14 12.2
2019-Dec-05 15:29 032 6 gusting 12 12.2
2019-Dec-05 15:24 028 6 gusting 12 12.8
2019-Dec-05 15:19 323 6 gusting 10 12.8
2019-Dec-05 15:14 328 6 gusting 12 12.8
2019-Dec-05 15:09 338 6 gusting 13 12.8
2019-Dec-05 15:04 356 7 gusting 13 12.8
2019-Dec-05 14:59 312 6 gusting 11 12.8
2019-Dec-05 14:54 328 7 gusting 12 12.8
2019-Dec-05 14:49 321 7 gusting 12 12.8
2019-Dec-05 14:44 339 6 gusting 11 12.8
2019-Dec-05 14:39 316 6 gusting 12 12.8
2019-Dec-05 14:34 328 6 gusting 12 12.8
2019-Dec-05 14:29 284 6 gusting 11 12.8
2019-Dec-05 14:24 348 6 gusting 11 12.8
2019-Dec-05 14:19 332 5 gusting 11 12.8
2019-Dec-05 14:14 321 6 gusting 13 12.8
2019-Dec-05 14:09 330 6 gusting 12 12.8
2019-Dec-05 14:04 067 5 gusting 12 12.8
2019-Dec-05 13:59 052 6 gusting 12 12.8
2019-Dec-05 13:54 013 6 gusting 10 12.8
2019-Dec-05 13:49 011 6 gusting 10 12.8
2019-Dec-05 13:44 345 6 gusting 10 12.8
2019-Dec-05 13:39 006 5 gusting 18 12.8
2019-Dec-05 13:34 308 8 gusting 18 12.8
2019-Dec-05 13:29 032 6 gusting 10 12.8
2019-Dec-05 13:24 308 6 gusting 13 12.8
2019-Dec-05 13:19 341 6 gusting 13 12.8
2019-Dec-05 13:14 034 7 gusting 13 12.8
2019-Dec-05 13:09 057 6 gusting 11 12.8
2019-Dec-05 13:04 338 6 gusting 14 12.8
2019-Dec-05 12:59 001 8 gusting 14 12.8
2019-Dec-05 12:54 016 8 gusting 13 12.8
2019-Dec-05 12:49 345 8 gusting 12 12.8
2019-Dec-05 12:44 328 6 gusting 13 12.8
2019-Dec-05 12:39 341 7 gusting 13 12.8
2019-Dec-05 12:34 330 7 gusting 12 13.3
2019-Dec-05 12:29 012 7 gusting 14 13.3
2019-Dec-05 12:24 349 6 gusting 14 13.3
2019-Dec-05 12:19 224 7 gusting 13 13.3
2019-Dec-05 12:14 356 6 gusting 15 13.3
2019-Dec-05 12:09 357 8 gusting 15 13.3
2019-Dec-05 12:04 046 7 gusting 15 12.8
2019-Dec-05 11:59 321 5 gusting 14 12.8
2019-Dec-05 11:54 318 9 gusting 14 12.8
2019-Dec-05 11:49 018 8 gusting 12 12.8
2019-Dec-05 11:44 331 6 gusting 11 12.8
2019-Dec-05 11:39 358 6 gusting 12 13.3
2019-Dec-05 11:34 004 6 gusting 13 13.3
2019-Dec-05 11:29 033 6 gusting 13 13.3
2019-Dec-05 11:24 345 6 gusting 12 13.3
2019-Dec-05 11:19 335 6 gusting 12 12.8
2019-Dec-05 11:14 037 6 gusting 12 12.8
2019-Dec-05 11:09 322 6 gusting 10 12.8
2019-Dec-05 11:04 311 6 gusting 11 12.8
2019-Dec-05 10:59 051 6 gusting 11 12.8
2019-Dec-05 10:54 343 6 gusting 11 12.8
2019-Dec-05 10:49 308 6 gusting 13 12.8
2019-Dec-05 10:44 014 6 gusting 13 12.8
2019-Dec-05 10:39 018 6 gusting 11 13.3
2019-Dec-05 10:34 333 6 gusting 11 13.3
2019-Dec-05 10:29 321 6 gusting 12 13.3
2019-Dec-05 10:24 043 6 gusting 12 13.3
2019-Dec-05 10:19 315 4 gusting 10 13.3
2019-Dec-05 10:14 316 6 gusting 12 13.3
2019-Dec-05 10:09 051 6 gusting 12 13.3
2019-Dec-05 10:04 330 7 gusting 11 13.3
2019-Dec-05 09:59 348 6 gusting 13 13.3
2019-Dec-05 09:54 348 7 gusting 15 12.8
2019-Dec-05 09:49 294 6 gusting 13 12.8
2019-Dec-05 09:44 351 6 gusting 13 12.8
2019-Dec-05 09:39 341 8 gusting 13 12.8
2019-Dec-05 09:34 307 8 gusting 13 12.8
2019-Dec-05 09:29 335 8 gusting 16 12.8
2019-Dec-05 09:24 305 9 gusting 16 12.8
2019-Dec-05 09:19 311 8 gusting 14 12.8
2019-Dec-05 09:14 306 8 gusting 13 13.3
2019-Dec-05 09:09 307 6 gusting 13 13.3
2019-Dec-05 09:04 328 9 gusting 13 13.3
2019-Dec-05 08:59 016 6 gusting 12 13.3
2019-Dec-05 08:54 292 6 gusting 12 13.3
2019-Dec-05 08:49 311 7 gusting 12 13.3
2019-Dec-05 08:44 291 7 gusting 14 13.3
2019-Dec-05 08:39 001 8 gusting 13 13.3
2019-Dec-05 08:34 025 8 gusting 13 13.3
2019-Dec-05 08:29 012 6 gusting 13 13.3
2019-Dec-05 08:24 012 8 gusting 13 13.3
2019-Dec-05 08:19 004 6 gusting 13 12.8
2019-Dec-05 08:14 326 7 gusting 11 12.8
2019-Dec-05 08:09 357 6 gusting 11 12.8
2019-Dec-05 08:04 357 6 gusting 11 12.8
2019-Dec-05 07:59 321 6 gusting 11 12.8
2019-Dec-05 07:54 314 6 gusting 10 12.8
2019-Dec-05 07:49 004 6 gusting 11 12.8
2019-Dec-05 07:44 305 6 gusting 13 12.8
2019-Dec-05 07:39 343 7 gusting 13 12.8
2019-Dec-05 07:34 033 6 gusting 11 12.8
2019-Dec-05 07:29 345 6 gusting 11 12.8
2019-Dec-05 07:24 323 6 gusting 9 12.8
2019-Dec-05 07:19 021 5 gusting 10 12.8
2019-Dec-05 07:14 330 6 gusting 10 12.8
2019-Dec-05 07:09 316 7 gusting 10 12.8
2019-Dec-05 07:04 315 6 gusting 10 12.8
2019-Dec-05 06:59 340 5 gusting 10 12.8
2019-Dec-05 06:54 333 6 gusting 11 12.8
2019-Dec-05 06:49 316 6 gusting 11 12.2
2019-Dec-05 06:44 333 6 gusting 13 12.2
2019-Dec-05 06:39 312 6 gusting 13 12.2
2019-Dec-05 06:34 342 6 gusting 12 12.2
2019-Dec-05 06:29 330 6 gusting 12 12.2
2019-Dec-05 06:24 326 6 gusting 11 12.2
2019-Dec-05 06:19 323 7 gusting 11 12.2
2019-Dec-05 06:14 336 6 gusting 11 12.2
2019-Dec-05 06:09 308 6 gusting 11 12.2
2019-Dec-05 06:04 355 6 gusting 10 12.2
2019-Dec-05 05:59 330 6 gusting 10 12.2
2019-Dec-05 05:54 319 5 gusting 10 12.2
2019-Dec-05 05:49 305 5 gusting 11 12.2
2019-Dec-05 05:44 316 5 gusting 8 12.2
2019-Dec-05 05:39 335 5 gusting 9 12.2
2019-Dec-05 05:34 354 6 gusting 9 12.2
2019-Dec-05 05:29 332 6 gusting 9 12.2
2019-Dec-05 05:24 345 6 gusting 10 12.2
2019-Dec-05 05:19 335 5 gusting 10 12.2
2019-Dec-05 05:14 012 6 gusting 12 12.2
2019-Dec-05 05:09 001 6 gusting 13 12.2
2019-Dec-05 05:04 335 7 gusting 11 12.2
2019-Dec-05 04:59 328 6 gusting 11 12.2
2019-Dec-05 04:54 348 6 gusting 10 12.2
2019-Dec-05 04:49 338 5 gusting 9 12.2
2019-Dec-05 04:44 316 6 gusting 10 12.2
2019-Dec-05 04:39 323 5 gusting 8 12.2
2019-Dec-05 04:34 330 5 gusting 7 11.7
2019-Dec-05 04:29 316 5 gusting 7 11.7
2019-Dec-05 04:24 345 4 gusting 7 11.7
2019-Dec-05 04:19 349 1 gusting 6 11.7
2019-Dec-05 04:14 333 3 gusting 6 11.7
2019-Dec-05 04:09 330 4 gusting 9 11.7
2019-Dec-05 04:04 321 4 gusting 10 11.7
2019-Dec-05 03:59 357 6 gusting 9 11.7
2019-Dec-05 03:54 014 6 gusting 11 12.2
2019-Dec-05 03:49 357 6 gusting 11 12.2
2019-Dec-05 03:44 311 6 gusting 10 12.2
2019-Dec-05 03:39 348 5 gusting 10 12.2
2019-Dec-05 03:34 294 5 gusting 9 12.2
2019-Dec-05 03:29 305 3 gusting 9 12.2
2019-Dec-05 03:24 298 5 gusting 12 12.2
2019-Dec-05 03:19 250 4 gusting 8 12.2
2019-Dec-05 03:14 322 4 gusting 7 12.2
2019-Dec-05 03:09 323 4 gusting 7 12.2
2019-Dec-05 03:04 302 4 gusting 7 12.2
2019-Dec-05 02:59 329 3 gusting 8 12.2
2019-Dec-05 02:54 322 3 gusting 8 12.2
2019-Dec-05 02:49 307 3 gusting 7 12.2
2019-Dec-05 02:44 290 3 gusting 9 12.2
2019-Dec-05 02:39 322 5 gusting 9 12.2
2019-Dec-05 02:34 306 4 gusting 7 12.2
2019-Dec-05 02:29 360 3 gusting 6 12.2
2019-Dec-05 02:24 335 4 gusting 6 12.2
2019-Dec-05 02:19 350 2 gusting 6 12.2
2019-Dec-05 02:14 012 3 gusting 6 12.2
2019-Dec-05 02:09 315 4 gusting 6 12.2
2019-Dec-05 02:04 165 2 gusting 7 12.2
2019-Dec-05 01:59 319 4 gusting 8 12.2
2019-Dec-05 01:54 315 5 gusting 9 12.2
2019-Dec-05 01:49 327 5 gusting 9 12.2
2019-Dec-05 01:44 342 5 gusting 9 12.2
2019-Dec-05 01:39 333 4 gusting 9 12.2
2019-Dec-05 01:34 352 4 gusting 7 12.2
2019-Dec-05 01:29 030 4 gusting 6 12.2
2019-Dec-05 01:24 319 2 gusting 6 12.2
2019-Dec-05 01:19 323 3 gusting 6 11.7
2019-Dec-05 01:14 339 3 gusting 5 11.7
2019-Dec-05 01:09 328 2 gusting 6 11.7
2019-Dec-05 01:04 338 2 gusting 8 12.2
2019-Dec-05 00:59 325 3 gusting 7 11.7
2019-Dec-05 00:54 333 3 gusting 7 12.2
2019-Dec-05 00:49 296 3 gusting 7 12.2
2019-Dec-05 00:44 308 3 gusting 6 12.2
2019-Dec-05 00:39 296 2 gusting 5 11.7
2019-Dec-05 00:34 328 0 gusting 4 11.7
2019-Dec-05 00:29 146 0 gusting 4 11.7
2019-Dec-05 00:24 321 0 gusting 3 11.7
2019-Dec-05 00:19 009 0 gusting 4 11.7
2019-Dec-05 00:14 325 1 gusting 5 11.7
2019-Dec-05 00:09 328 1 gusting 5 11.7
2019-Dec-05 00:04 349 2 gusting 6 12.2
2019-Dec-04 23:59 322 4 gusting 6 11.7
2019-Dec-04 23:54 308 2 gusting 8 11.7
2019-Dec-04 23:49 326 3 gusting 8 11.7
2019-Dec-04 23:44 004 2 gusting 6 11.7
2019-Dec-04 23:39 315 4 gusting 8 11.7
2019-Dec-04 23:34 309 3 gusting 7 11.7
2019-Dec-04 23:29 253 3 gusting 8 11.7
2019-Dec-04 23:24 316 5 gusting 8 11.7
2019-Dec-04 23:19 291 4 gusting 8 11.7
2019-Dec-04 23:14 326 5 gusting 11 11.7
2019-Dec-04 23:09 302 5 gusting 10 11.7
2019-Dec-04 23:04 333 4 gusting 6 11.7
2019-Dec-04 22:59 338 3 gusting 7 11.7
2019-Dec-04 22:54 288 3 gusting 10 12.2
2019-Dec-04 22:49 314 5 gusting 10 12.2
2019-Dec-04 22:44 025 5 gusting 10 12.2
2019-Dec-04 22:39 308 4 gusting 10 12.2
2019-Dec-04 22:34 298 4 gusting 8 12.2
2019-Dec-04 22:29 347 2 gusting 6 12.2
2019-Dec-04 22:24 319 1 gusting 6 12.2
2019-Dec-04 22:19 341 2 gusting 6 12.2
2019-Dec-04 22:14 330 3 gusting 6 12.2
2019-Dec-04 22:09 336 3 gusting 8 12.2
2019-Dec-04 22:04 322 3 gusting 8 12.2
2019-Dec-04 21:59 315 5 gusting 8 12.2
2019-Dec-04 21:54 316 5 gusting 8 12.2
2019-Dec-04 21:49 315 5 gusting 8 12.2
2019-Dec-04 21:44 326 5 gusting 9 12.2
2019-Dec-04 21:39 312 6 gusting 9 12.2
2019-Dec-04 21:34 330 6 gusting 8 12.2
2019-Dec-04 21:29 343 4 gusting 8 12.8
2019-Dec-04 21:24 328 4 gusting 9 12.8
2019-Dec-04 21:19 347 6 gusting 10 12.8
2019-Dec-04 21:14 330 5 gusting 10 12.8
2019-Dec-04 21:09 321 6 gusting 10 12.8
2019-Dec-04 21:04 333 4 gusting 7 12.8
2019-Dec-04 20:59 310 3 gusting 8 12.8
2019-Dec-04 20:54 345 5 gusting 9 12.8
2019-Dec-04 20:49 338 6 gusting 10 12.2
2019-Dec-04 20:44 347 6 gusting 10 12.2
2019-Dec-04 20:39 307 5 gusting 8 12.2
2019-Dec-04 20:34 331 4 gusting 8 12.2
2019-Dec-04 20:29 311 4 gusting 6 12.2
2019-Dec-04 20:24 338 4 gusting 6 12.2
2019-Dec-04 20:19 305 4 gusting 7 12.2
2019-Dec-04 20:14 311 3 gusting 7 12.2
2019-Dec-04 20:09 292 2 gusting 6 12.8
2019-Dec-04 20:04 323 2 gusting 6 12.8